Fairbanks, AK

9:33 PM AKST on December 06, 2019 (GMT -0900)
Fairbanks International

Weather History for PAFA - January, 1975

Change the Weather History Date:

Sunday, January 12, 1975

  Actual Average Record
Temperature  
Mean Temperature -20 °F -8 °F  
Max Temperature -7 °F 0 °F 39 °F (1984)
Min Temperature -33 °F -17 °F -56 °F (1934)
Degree Days  
Heating Degree Days 85 73  
Month to date heating degree days 872  
Since 1 July heating degree days 7144  
Cooling Degree Days 0 0  
Month to date cooling degree days 0  
Year to date cooling degree days 0  
Moisture  
Dew Point -26 °F    
Average Humidity 61    
Maximum Humidity 82    
Minimum Humidity 47    
Precipitation  
Precipitation 0.00 in 0.02 in 0.40 in (1963)
Month to date precipitation 0.25  
Year to date precipitation 0.25  
Snow  
Snow 0.00 in 0.30 in 11.00 in (2007)
Month to date snowfall 4.4  
Since 1 July snowfall 42.3  
Snow Depth -    
Sea Level Pressure  
Sea Level Pressure 29.68 in    
Wind  
Wind Speed 8 mph (NNE)    
Max Wind Speed 18 mph    
Max Gust Speed -    
Visibility 12 miles    
Events Fog    
T = Trace of Precipitation, MM = Missing Value Source: NWS Daily Summary

Daily Weather History Graph

Daily Weather History Graph

Search for Another Location

Airport or City:

Astronomy

Jan. 12, 1975 Rise Set
Actual Time 9:34 AM AHST 2:25 PM AHST
Civil Twilight 8:21 AM AHST 3:38 PM AHST
Nautical Twilight 7:14 AM AHST 4:46 PM AHST
Astronomical Twilight 6:14 AM AHST 5:45 PM AHST
Moon 9:00 AM AHST (1/12) 3:50 PM AHST (1/12)
Length of Visible Light 7h 17m
Length of Day
4h 50m
New Moon, 0% of the Moon is Illuminated
Jan 12
New Moon
Jan 20
First Quarter
Jan 27
Full
Feb 2
Last Quarter
Feb 10
New

Hourly Weather History & Observations

Time (AHST) Temp. Windchill Dew Point Humidity Pressure Visibility Wind Dir Wind Speed Gust Speed Precip Events Conditions
12:00 AM -33.0 °F -45.5 °F -38.9 °F 73% 29.64 in 5.0 mi NE 3.5 mph - N/A Fog Fog
1:00 AM -33.0 °F -45.5 °F -38.9 °F 73% 29.63 in 1.0 mi East 3.5 mph - N/A Fog Fog
1:45 AM - - - N/A% 29.54 in 5.0 mi NNE 3.5 mph - N/A Fog Fog
2:00 AM -32.1 °F - -38.0 °F 73% 29.61 in 5.0 mi Calm Calm - N/A Fog Fog
3:00 AM -33.0 °F - -38.9 °F 73% 29.62 in 5.0 mi Calm Calm - N/A Fog Fog
4:00 AM -33.0 °F -45.5 °F -38.9 °F 73% 29.61 in 6.0 mi North 3.5 mph - N/A Fog Fog
5:00 AM -33.0 °F -45.5 °F -38.9 °F 73% 29.62 in 10.0 mi NNE 3.5 mph - N/A   Scattered Clouds
6:00 AM -32.8 °F -50.5 °F -38.2 °F 75% 29.54 in 10.0 mi North 5.8 mph - N/A   Partly Cloudy
7:00 AM -11.9 °F -21.5 °F -16.1 °F 82% 29.62 in 10.0 mi NNE 3.5 mph - N/A   Partly Cloudy
8:00 AM -7.1 °F -27.6 °F -17.0 °F 62% 29.64 in 15.0 mi North 13.8 mph - N/A   Partly Cloudy
9:00 AM -7.1 °F -25.9 °F -18.0 °F 59% 29.65 in 20.0 mi NNE 11.5 mph - N/A   Scattered Clouds
10:00 AM -7.1 °F -27.6 °F -17.0 °F 62% 29.66 in 30.0 mi North 13.8 mph - N/A   Mostly Cloudy
11:00 AM -7.1 °F -28.4 °F -18.0 °F 59% 29.68 in 30.0 mi NNE 15.0 mph - N/A   Mostly Cloudy
12:00 PM -7.1 °F -27.6 °F -18.0 °F 59% 29.68 in 30.0 mi NNE 13.8 mph - N/A   Mostly Cloudy
1:00 PM -7.1 °F -28.4 °F -18.0 °F 59% 29.70 in 30.0 mi North 15.0 mph - N/A   Mostly Cloudy
2:00 PM -8.0 °F -30.3 °F -20.0 °F 56% 29.71 in 30.0 mi North 16.1 mph - N/A   Mostly Cloudy
3:00 PM -8.0 °F -31.6 °F -20.9 °F 53% 29.73 in 30.0 mi NNE 18.4 mph - N/A   Overcast
4:00 PM -9.0 °F -31.7 °F -22.0 °F 53% 29.75 in 20.0 mi North 16.1 mph - N/A   Overcast
5:00 PM -9.0 °F -32.4 °F -22.0 °F 53% 29.76 in 20.0 mi NNE 17.3 mph - N/A   Overcast
6:00 PM -9.0 °F -32.4 °F -23.1 °F 50% 29.76 in 20.0 mi North 17.3 mph - N/A   Overcast
7:00 PM -9.9 °F -32.1 °F -24.0 °F 50% 29.77 in 20.0 mi NNE 15.0 mph - N/A   Overcast
8:00 PM -9.9 °F -31.3 °F -24.0 °F 50% 29.78 in 15.0 mi North 13.8 mph - N/A   Overcast
9:00 PM -9.9 °F -24.9 °F -24.0 °F 50% 29.79 in 15.0 mi ENE 6.9 mph - N/A   Overcast
10:00 PM -9.9 °F -30.5 °F -23.1 °F 52% 29.80 in 15.0 mi NE 12.7 mph - N/A   Overcast
11:00 PM -9.9 °F -31.3 °F -25.1 °F 47% 29.81 in 15.0 mi NNE 13.8 mph - N/A   Overcast